Wind_Speed
25 20 18 15 11 11 14 14 16 12 6 1 5 8 9 10 7 9 7 10 7 6 5 8 16 21 25 26 27 26 28 30 35 40 27 37 42 25
26 22 20 16 11 8 8 11 14 14 14 1 3 9 2 3 8 6 8 4 4 2 3 3 5 10 16 19 19 18 22 24 22 18 29 24 31 30
24 24 22 18 14 8 5 6 7 11 15 2 9 10 4 5 6 12 11 6 9 3 4 1 3 6 9 12 13 16 18 17 17 20 21 14 18 32
23 24 26 23 16 12 7 4 2 0 7 12 12 13 13 12 13 18 20 15 10 9 4 4 1 2 4 7 9 13 16 17 21 21 25 22 20 23
23 25 25 26 23 17 12 7 4 3 2 11 14 15 16 17 14 14 18 20 18 11 8 4 4 2 3 2 2 4 7 5 6 9 11 12 16 20
23 25 27 26 25 22 18 14 10 9 12 15 15 15 16 15 17 15 14 14 17 15 14 13 13 10 7 7 4 4 3 2 3 5 7 8 9 9
21 23 26 27 26 23 21 20 17 17 16 16 16 13 13 13 13 17 16 16 16 15 13 12 13 13 13 11 11 8 5 3 2 3 5 6 7 8
18 19 22 24 26 26 24 22 21 20 21 19 20 20 18 13 8 7 9 7 8 11 14 13 11 13 15 15 14 10 9 7 6 4 3 4 6 7
17 18 19 22 23 23 23 22 23 25 25 22 21 19 16 17 18 14 11 3 7 8 9 9 10 13 15 15 15 13 11 11 10 8 6 6 5 5
16 17 18 19 21 21 20 22 24 24 25 23 22 21 18 13 9 10 14 16 11 9 11 11 6 7 10 13 14 13 13 11 10 9 9 8 7 8
16 16 17 17 19 18 17 20 22 25 24 21 20 18 16 17 16 13 7 6 15 14 11 13 12 5 6 12 14 15 13 12 12 12 11 10 9 9
14 15 16 16 16 16 17 18 20 23 20 18 16 16 16 17 17 18 19 18 9 8 15 15 16 10 3 10 11 15 14 13 14 15 16 17 15 14
11 13 14 15 15 15 16 18 20 18 16 16 17 17 17 18 19 19 20 19 19 18 18 15 14 14 9 8 10 18 19 15 16 16 16 17 19 20
8 10 11 12 13 14 15 17 15 14 14 14 15 17 19 20 20 20 20 19 18 17 16 15 15 14 13 12 13 16 21 14 20 21 20 18 17 17
6 8 9 9 10 10 11 11 11 12 13 14 16 18 18 18 16 16 15 15 15 15 15 15 14 13 12 12 13 19 22 12 21 20 20 21 22 21
4 6 6 7 8 9 9 10 11 12 13 13 14 14 13 13 14 14 14 13 13 15 17 17 17 15 12 11 11 14 17 13 20 21 20 17 17 17
2 4 5 6 6 7 8 9 9 10 10 11 12 12 12 13 14 14 15 14 15 15 16 16 17 16 16 10 10 15 17 17 18 20 20 19 15 16
1 2 3 4 5 6 7 7 8 9 10 11 11 11 11 12 12 13 14 14 14 15 16 17 17 15 12 12 11 17 18 18 20 20 19 20 20 18
1 2 3 3 4 6 6 6 7 8 9 9 10 10 11 11 12 13 13 13 12 12 13 14 16 16 14 13 7 18 17 16 18 17 16 17 17 18
2 2 3 4 4 5 6 6 7 8 9 9 9 10 10 10 10 11 11 11 10 10 10 11 13 14 12 13 12 13 16 16 18 18 19 18 17 19
4 3 4 4 4 5 5 6 7 8 8 9 10 10 10 10 10 10 10 11 10 9 10 11 12 16 11 12 13 15 16 17 18 16 18 18 20 22
5 5 5 5 5 5 6 6 7 8 9 9 10 10 10 10 10 10 10 9 8 8 9 11 12 13 12 14 15 17 19 21 18 18 15 13 16 20
6 6 6 6 6 6 6 7 7 8 8 9 10 10 10 10 10 10 10 10 11 10 10 12 13 12 13 13 15 16 18 19 20 21 17 18 19 19
Wind_Direction
4 359 350 338 315 286 271 270 275 297 303 244 84 30 13 30 66 77 107 128 147 143 198 222 220 221 220 224 228 231 232 226 246 267 263 244 249 278
12 11 5 359 348 317 285 275 268 264 251 294 122 121 48 39 54 83 72 89 156 180 143 206 201 203 210 222 223 225 227 228 239 245 253 281 259 259
17 19 21 12 8 2 319 297 251 265 230 222 143 159 157 1 144 117 87 77 85 104 106 213 219 186 192 212 219 221 216 220 222 234 245 288 293 260
23 24 31 26 24 25 20 330 290 284 168 154 138 138 147 148 150 135 119 110 102 91 51 65 164 147 186 176 206 223 231 233 231 227 230 233 232 241
29 29 31 35 34 33 36 37 51 96 205 171 139 135 143 142 140 131 119 117 117 100 87 126 137 165 125 160 168 207 204 205 221 218 227 228 229 234
34 38 35 35 41 42 46 52 61 96 119 134 132 125 124 123 125 112 116 124 110 110 116 101 91 94 94 104 108 99 69 13 333 307 287 279 274 285
37 42 44 44 42 44 54 61 71 83 94 98 97 102 112 116 115 110 109 103 104 111 94 97 85 85 85 80 81 77 76 79 32 320 300 292 290 284
48 46 49 49 48 49 50 62 68 73 78 81 80 75 72 87 102 131 131 129 93 91 88 82 84 80 71 66 62 60 58 50 54 39 347 292 294 297
53 51 52 54 53 50 53 56 64 67 67 69 71 71 69 64 70 67 67 89 112 89 78 66 64 66 64 55 44 39 36 35 34 32 29 17 360 332
55 53 53 53 55 53 52 56 58 62 61 59 60 63 63 66 69 71 67 68 82 92 71 61 70 75 62 47 40 36 30 24 18 15 11 7 5 359
51 57 55 55 53 52 52 55 59 58 57 57 58 59 57 59 58 62 87 79 64 65 69 60 46 71 58 28 32 27 25 21 16 10 5 4 2 353
49 50 51 51 52 51 50 55 56 56 53 56 61 63 60 58 57 58 62 63 66 53 42 48 38 43 39 15 15 17 22 22 21 14 5 360 357 356
51 49 45 41 41 43 46 50 52 51 47 45 46 48 50 53 54 52 49 48 49 49 39 38 33 35 38 13 12 10 10 13 18 13 8 4 2 355
55 53 48 39 35 32 35 41 43 42 43 44 46 46 44 43 42 39 39 39 38 36 30 26 26 24 23 14 9 8 8 8 10 9 8 7 5 2
57 55 49 44 39 37 40 41 37 37 36 34 38 40 41 40 38 38 36 37 36 33 31 28 25 23 22 22 12 5 8 4 2 7 8 6 4 2
46 47 45 41 34 30 30 29 29 31 32 34 37 36 34 33 32 35 36 36 33 33 31 26 25 26 26 21 17 9 8 7 0 3 5 6 7 5
34 38 34 30 28 23 24 26 26 28 28 31 29 26 23 23 24 25 26 26 25 23 22 27 27 24 20 18 15 6 2 1 358 356 358 358 0 0
50 25 18 15 16 17 19 16 19 22 23 24 21 19 19 19 18 18 20 22 20 17 15 14 16 19 20 14 5 6 2 356 354 354 355 349 346 348
354 346 349 358 3 7 2 6 15 17 18 17 14 13 11 10 11 12 14 18 19 17 14 12 14 14 10 5 350 358 358 354 349 349 347 344 336 332
267 298 322 333 347 348 348 357 1 5 8 9 9 8 6 5 5 6 6 9 9 8 8 9 9 9 3 347 333 339 350 353 349 344 338 336 331 329
265 281 296 311 322 326 335 341 346 352 356 358 359 358 356 356 354 352 353 353 4 356 357 356 352 357 347 345 337 337 345 345 346 341 337 334 333 332
271 279 285 297 306 315 326 332 337 343 346 346 347 347 346 345 343 342 340 342 341 341 340 341 342 347 347 346 335 333 334 338 342 340 340 334 329 320
270 274 282 290 298 310 320 324 328 331 333 335 337 338 337 334 331 331 330 330 330 330 332 332 333 336 335 333 331 329 329 335 336 334 332 325 324 319
Height
1450 1445 1440 1436 1433 1431 1430 1430 1429 1427 1426 1423 1422 1420 1420 1421 1423 1421 1420 1421 1425 1425 1427 1428 1428 1430 1433 1437 1441 1442 1445 1447 1452 1455 1453 1457 1463 1460
1451 1445 1440 1435 1431 1429 1428 1428 1427 1427 1427 1425 1426 1424 1425 1426 1418 1423 1425 1422 1423 1426 1426 1427 1427 1428 1430 1433 1435 1437 1440 1442 1445 1446 1448 1448 1451 1456
1454 1447 1441 1436 1431 1428 1427 1426 1424 1423 1424 1425 1424 1425 1424 1420 1426 1425 1424 1422 1423 1425 1425 1427 1429 1428 1429 1431 1433 1436 1437 1439 1441 1439 1441 1445 1444 1450
1455 1449 1443 1438 1433 1429 1426 1425 1423 1422 1423 1423 1424 1424 1424 1427 1423 1426 1426 1423 1426 1426 1425 1425 1429 1426 1428 1429 1430 1433 1433 1436 1437 1436 1438 1439 1440 1444
1458 1453 1447 1441 1436 1432 1428 1425 1423 1422 1423 1423 1424 1425 1426 1427 1428 1426 1422 1425 1430 1426 1426 1432 1426 1427 1430 1430 1431 1433 1434 1435 1436 1436 1436 1436 1438 1443
1461 1456 1451 1446 1441 1437 1432 1428 1427 1424 1424 1425 1426 1427 1428 1428 1427 1427 1425 1427 1422 1426 1431 1431 1428 1427 1429 1431 1431 1434 1435 1435 1436 1436 1436 1436 1438 1437
1465 1460 1456 1452 1448 1443 1438 1435 1432 1430 1429 1429 1429 1429 1429 1429 1430 1431 1433 1429 1430 1432 1430 1431 1429 1429 1431 1432 1430 1434 1434 1434 1435 1436 1435 1434 1436 1436
1468 1465 1461 1456 1454 1450 1445 1441 1438 1436 1434 1434 1433 1433 1433 1432 1433 1433 1433 1433 1433 1434 1434 1431 1432 1433 1434 1435 1435 1435 1433 1433 1433 1433 1433 1434 1433 1432
1471 1468 1465 1461 1458 1455 1453 1449 1445 1442 1441 1440 1438 1436 1436 1436 1434 1434 1434 1434 1434 1436 1436 1436 1436 1435 1437 1436 1435 1435 1434 1434 1434 1434 1434 1432 1432 1430
1473 1471 1468 1466 1462 1460 1458 1455 1451 1449 1446 1445 1444 1443 1442 1441 1440 1439 1439 1438 1438 1438 1437 1439 1438 1439 1440 1440 1439 1438 1436 1435 1434 1433 1432 1432 1430 1428
1476 1474 1472 1469 1467 1465 1463 1459 1457 1454 1452 1451 1450 1449 1447 1445 1443 1442 1441 1441 1441 1439 1440 1439 1440 1439 1440 1440 1439 1438 1436 1434 1433 1431 1431 1430 1427 1426
1478 1476 1474 1472 1471 1469 1467 1464 1461 1459 1458 1458 1456 1454 1452 1449 1447 1445 1444 1443 1442 1442 1442 1442 1441 1440 1441 1440 1438 1437 1435 1433 1431 1429 1427 1425 1424 1422
1480 1478 1477 1475 1473 1471 1469 1467 1464 1463 1463 1461 1459 1457 1455 1453 1451 1449 1448 1447 1446 1445 1445 1444 1443 1442 1441 1439 1437 1435 1433 1432 1430 1428 1426 1423 1420 1417
1482 1480 1479 1478 1476 1474 1471 1469 1468 1467 1465 1464 1462 1459 1457 1455 1454 1452 1451 1450 1449 1448 1447 1446 1444 1443 1441 1440 1439 1437 1434 1432 1430 1427 1424 1422 1421 1418
1482 1481 1481 1480 1478 1477 1475 1473 1472 1469 1468 1466 1463 1461 1461 1459 1458 1457 1455 1454 1452 1451 1449 1447 1446 1444 1443 1441 1440 1437 1434 1432 1430 1427 1424 1421 1419 1416
1482 1481 1481 1480 1479 1478 1476 1475 1473 1471 1469 1467 1466 1465 1464 1462 1461 1459 1458 1456 1455 1453 1450 1448 1446 1444 1443 1442 1441 1439 1435 1434 1430 1427 1425 1423 1421 1418
1482 1482 1481 1481 1480 1479 1477 1476 1475 1473 1471 1469 1468 1466 1465 1464 1462 1460 1458 1457 1456 1454 1452 1450 1447 1445 1443 1442 1442 1439 1436 1434 1431 1427 1424 1422 1420 1418
1481 1481 1480 1480 1479 1478 1478 1477 1475 1473 1472 1470 1469 1467 1466 1465 1463 1461 1459 1457 1456 1454 1452 1450 1448 1446 1445 1443 1441 1438 1435 1433 1429 1426 1423 1420 1416 1415
1480 1480 1479 1479 1478 1477 1477 1476 1475 1473 1472 1471 1469 1468 1466 1465 1463 1461 1459 1458 1457 1456 1454 1452 1449 1447 1446 1445 1442 1437 1435 1432 1429 1426 1424 1421 1418 1415
1478 1478 1478 1478 1477 1477 1476 1474 1473 1472 1471 1470 1468 1467 1466 1464 1463 1461 1460 1459 1458 1457 1455 1453 1450 1447 1446 1444 1441 1438 1433 1430 1426 1423 1420 1417 1414 1410
1477 1477 1477 1476 1476 1475 1474 1473 1472 1471 1470 1468 1467 1466 1464 1463 1462 1461 1459 1458 1457 1456 1455 1453 1450 1446 1444 1442 1439 1435 1432 1428 1424 1420 1417 1413 1409 1405
1475 1475 1475 1474 1473 1473 1472 1471 1470 1469 1468 1467 1465 1464 1463 1462 1460 1459 1458 1457 1456 1455 1454 1451 1448 1445 1443 1440 1438 1434 1430 1425 1422 1419 1415 1413 1410 1404
1472 1472 1472 1472 1471 1470 1470 1469 1468 1467 1466 1465 1463 1462 1461 1459 1458 1457 1455 1454 1453 1452 1451 1449 1447 1445 1442 1440 1436 1433 1429 1424 1420 1416 1414 1410 1405 1401